GPS BIIF-8

Last updated on Sun Oct 19 2025 00:02:34 GMT+0000 (Coordinated Universal Time)

1 40294U 14068A 25291.11623914 -.00000090 00000+0 00000+0 0 9992 2 40294 56.8186 40.2968 0061348 69.9066 290.7495 2.00561426 80350
UTC large
Height (km)
Speed (km/s)
/
Latitude / Longitude
Inclination (degrees)
Orbital Period (minutes)
Azimuth
Elevation
Range (km)
Doppler Factor

Next 0 passes for location: London (51.5072 / 0.1276)

Sorry there are no passes over London.